User: anonymous   Login
Location: Newark
(48.5667°N, 7.8167°E)
Time: 15:50:10
(UTC+00:00)
Language:

CZ-6 R/B - Orbit

View from above orbital plane
View from above orbital plane
View from above satellite
View from above satellite

Ground track
Ground track

The orbit data is extracted from the following two-line orbital elements,

1 43025U 17074D   21332.20272984  .00007128  00000-0  15526-3 0  9998
2 43025  97.6680 134.5699 0085814 182.2977 177.7887 15.40710079225458
Epoch (UTC): 28 November 2021 04:51:55
Eccentricity: 0.0085814
inclination: 97.6680°
perigee height: 385 km
apogee height: 502 km
right ascension of ascending node: 134.5699°
argument of perigee: 182.2977°
revolutions per day: 15.40710079
mean anomaly at epoch: 177.7887°
orbit number at epoch: 22545

The dashed part of the orbit path shows where the satellite is in the earth's shadow,  

DLR